This is the latest recevied weather packets stored in our database for station/object W6SNO-1. If no packets are shown the sender has not sent any weather packets the latest 10 day(s).
| Time | Temp. | Humidity | Pressure | Rain* | Wind** | Luminosity | Snow |
|---|---|---|---|---|---|---|---|
| 1787613777 | 29.44° C | 51% | 1014 hPa | 0 mm | - | 451 W/m² | - |
| 1787613477 | 29.44° C | 50% | 1014.1 hPa | 0 mm | - | 476 W/m² | - |
| 1787613172 | 29.44° C | 50% | 1013.8 hPa | 0 mm | - | 483 W/m² | - |
| 1787612869 | 29.44° C | 49% | 1014.1 hPa | 0 mm | - | 492 W/m² | - |
| 1787612559 | 30° C | 48% | 1014.2 hPa | 0 mm | - | 505 W/m² | - |
| 1787612255 | 30° C | 47% | 1014.1 hPa | 0 mm | - | 526 W/m² | - |
| 1787611951 | 30° C | 47% | 1014.2 hPa | 0 mm | - | 526 W/m² | - |
| 1787611647 | 29.44° C | 48% | 1013.8 hPa | 0 mm | - | 540 W/m² | - |
| 1787611343 | 30° C | 47% | 1014.1 hPa | 0 mm | - | 553 W/m² | - |
| 1787611038 | 29.44° C | 48% | 1014.3 hPa | 0 mm | - | 564 W/m² | - |
| 1787610734 | 30° C | 47% | 1014.2 hPa | 0 mm | - | 574 W/m² | - |
| 1787610429 | 30° C | 47% | 1014.1 hPa | 0 mm | - | 588 W/m² | - |
| 1787610128 | 30° C | 46% | 1014.2 hPa | 0 mm | - | 606 W/m² | - |
| 1787609827 | 30° C | 47% | 1014.2 hPa | 0 mm | - | 612 W/m² | - |
| 1787609521 | 30° C | 46% | 1014.1 hPa | 0 mm | - | 621 W/m² | - |
| 1787609215 | 30° C | 44% | 1014.1 hPa | 0 mm | - | 631 W/m² | - |
| 1787608910 | 30° C | 45% | 1014 hPa | 0 mm | - | 644 W/m² | - |
| 1787608605 | 30° C | 45% | 1014.1 hPa | 0 mm | - | 650 W/m² | - |
| 1787608301 | 29.44° C | 44% | 1014.1 hPa | 0 mm | - | 664 W/m² | - |
| 1787607998 | 30° C | 45% | 1014.3 hPa | 0 mm | - | 671 W/m² | - |
| 1787607694 | 30° C | 43% | 1014.1 hPa | 0 mm | - | 676 W/m² | - |
| 1787607390 | 30° C | 42% | 1014.2 hPa | 0 mm | - | 688 W/m² | - |
| 1787607087 | 30° C | 43% | 1014.2 hPa | 0 mm | - | 692 W/m² | - |
| 1787606786 | 30° C | 42% | 1014.1 hPa | 0 mm | - | 699 W/m² | - |
| 1787606485 | 30° C | 41% | 1014.4 hPa | 0 mm | - | 710 W/m² | - |
* Rain latest hour (hover to see other rain measurements)
** Current wind speed in m/s (hover to see current wind gust speed)